Location: Newark
(52.4787°S, 179.0532°W)
Time: 00:49:35
(UTC+00:00)

Envisat - Pass Details

Date: 22 October 2019
Orbit: 764 x 766 km, 98.1° (Epoch: 17 November)

Event Time Altitude Azimuth Distance (km) Brightness Sun altitude
Rises 15:31:03 0° 85° (E) 3,252 7.2 -9.7°
Reaches altitude 10° 15:35:15 10° 119° (ESE) 2,335 7.2 -9.1°
Maximum altitude 15:36:36 11° 134° (SE) 2,266 6.9 -8.9°
Drops below altitude 10° 15:37:58 10° 149° (SSE) 2,341 6.6 -8.8°
Sets 15:42:11 0° 183° (S) 3,277 6.7 -8.2°
